Roxboro, NC

12:24 AM EDT on March 27, 2017 (GMT -0400)
Person County

Weather History for KTDF - November, 2012

Change the Weather History Date:

Sunday, November 11, 2012

  Actual Average Record
Temperature  
Mean Temperature 52 °F -  
Max Temperature 71 °F 62 °F 77 °F (1966)
Min Temperature 32 °F 38 °F 21 °F (1973)
Degree Days  
Heating Degree Days 14    
Growing Degree Days 2 (Base 50)    
Moisture  
Dew Point 42 °F    
Average Humidity 69    
Maximum Humidity 100    
Minimum Humidity 35    
Precipitation  
Precipitation 0.00 in - - ()
Sea Level Pressure  
Sea Level Pressure 30.44 in    
Wind  
Wind Speed 2 mph (SSW)    
Max Wind Speed 13 mph    
Max Gust Speed 18 mph    
Visibility 10 miles    
Events      
Averages and records for this station are not official NWS values.
T = Trace of Precipitation, MM = Missing Value Source: NWS Daily Summary

Daily Weather History Graph

Daily Weather History Graph

Search for Another Location

Airport or City:

Trip Planner

Search our weather history database for the weather conditions in past years. The results will help you decide how hot, cold, wet, or windy it might be!

Date:

Astronomy

Nov. 11, 2012 Rise Set
Actual Time 6:49 AM EST 5:10 PM EST
Civil Twilight 6:22 AM EST 5:37 PM EST
Nautical Twilight 5:51 AM EST 6:08 PM EST
Astronomical Twilight 5:20 AM EST 6:38 PM EST
Moon 4:04 AM EST (11/11) 3:29 PM EST (11/11)
Length of Visible Light 11h 15m
Length of Day
10h 20m
Waning Crescent, 7% of the Moon is Illuminated
Nov 11
Waning Crescent
Nov 13
New
Nov 20
First Quarter
Nov 28
Full
Dec 6
Last Quarter

Hourly Weather History & Observations

Time (EST) Temp. Windchill Dew Point Humidity Pressure Visibility Wind Dir Wind Speed Gust Speed Precip Events Conditions
12:15 AM 37.4 °F - 35.6 °F 93% 30.40 in 10.0 mi Calm Calm - N/A   Clear
12:35 AM 35.6 °F - 35.6 °F 100% 30.40 in 10.0 mi Calm Calm - N/A   Clear
12:55 AM 37.4 °F - 35.6 °F 93% 30.40 in 10.0 mi Calm Calm - N/A   Clear
1:15 AM 37.4 °F - 35.6 °F 93% 30.39 in 10.0 mi Calm Calm - N/A   Clear
1:55 AM 35.6 °F - 35.6 °F 100% 30.39 in 10.0 mi Calm Calm - N/A   Clear
2:15 AM 35.6 °F - 35.6 °F 100% 30.40 in 10.0 mi Calm Calm - N/A   Clear
2:55 AM 35.6 °F - 35.6 °F 100% 30.40 in 10.0 mi Calm Calm - N/A   Clear
3:15 AM 33.8 °F - 33.8 °F 100% 30.40 in 10.0 mi Calm Calm - N/A   Clear
3:35 AM 33.8 °F - 33.8 °F 100% 30.40 in 10.0 mi Calm Calm - N/A   Clear
3:55 AM 33.8 °F - 33.8 °F 100% 30.41 in 10.0 mi Calm Calm - N/A   Clear
5:15 AM 33.8 °F - 33.8 °F 100% 30.42 in 10.0 mi Calm Calm - N/A   Clear
5:35 AM 32.0 °F 28.7 °F 32.0 °F 100% 30.43 in 10.0 mi NE 3.5 mph - N/A   Clear
5:55 AM 33.8 °F - 33.8 °F 100% 30.44 in 10.0 mi Calm Calm - N/A   Clear
6:15 AM 33.8 °F - 33.8 °F 100% 30.45 in 10.0 mi Calm Calm - N/A   Clear
7:15 AM 32.0 °F - 32.0 °F 100% 30.47 in 10.0 mi Calm Calm - N/A   Clear
7:35 AM 33.8 °F - 33.8 °F 100% 30.47 in 10.0 mi Calm Calm - N/A   Clear
7:55 AM 35.6 °F - 35.6 °F 100% 30.48 in 10.0 mi Calm Calm - N/A   Clear
8:15 AM 41.0 °F - 39.2 °F 93% 30.48 in 10.0 mi North - - N/A   Clear
8:35 AM 46.4 °F - 41.0 °F 81% 30.49 in 10.0 mi Calm Calm - N/A   Clear
9:15 AM 53.6 °F - 41.0 °F 62% 30.49 in 10.0 mi Calm Calm - N/A   Clear
9:35 AM 55.4 °F - 41.0 °F 58% 30.49 in 10.0 mi Calm Calm - N/A   Clear
9:55 AM 59.0 °F - 41.0 °F 51% 30.50 in 10.0 mi SSW 3.5 mph - N/A   Clear
10:15 AM 62.6 °F - 41.0 °F 45% 30.50 in 10.0 mi SW 3.5 mph - N/A   Clear
10:35 AM 64.4 °F - 39.2 °F 40% 30.49 in 10.0 mi WSW 5.8 mph - N/A   Clear
10:55 AM 68.0 °F - 39.2 °F 35% 30.49 in 10.0 mi SSW 6.9 mph - N/A   Clear
11:15 AM 68.0 °F - 39.2 °F 35% 30.48 in 10.0 mi SW 3.5 mph - N/A   Clear
11:35 AM 68.0 °F - 39.2 °F 35% 30.48 in 10.0 mi WSW 4.6 mph - N/A   Clear
11:55 AM 69.8 °F - 41.0 °F 35% 30.47 in 10.0 mi West 5.8 mph - N/A   Clear
12:15 PM 69.8 °F - 42.8 °F 38% 30.46 in 10.0 mi SSW 11.5 mph - N/A   Clear
12:35 PM 71.6 °F - 42.8 °F 35% 30.45 in 10.0 mi WSW 5.8 mph - N/A   Clear
12:55 PM 71.6 °F - 42.8 °F 35% 30.44 in 10.0 mi SW 10.4 mph 16.1 mph N/A   Clear
1:15 PM 71.6 °F - 44.6 °F 38% 30.44 in 10.0 mi SW 11.5 mph 16.1 mph N/A   Clear
1:35 PM 71.6 °F - 44.6 °F 38% 30.43 in 10.0 mi South 12.7 mph 18.4 mph N/A   Clear
1:55 PM 71.6 °F - 44.6 °F 38% 30.43 in 10.0 mi SSW 11.5 mph - N/A   Clear
2:15 PM 71.6 °F - 44.6 °F 38% 30.42 in 10.0 mi South 11.5 mph - N/A   Clear
2:35 PM 71.6 °F - 44.6 °F 38% 30.42 in 10.0 mi SSW 11.5 mph 16.1 mph N/A   Clear
2:55 PM 71.6 °F - 44.6 °F 38% 30.41 in 10.0 mi SSW 8.1 mph 16.1 mph N/A   Clear
3:15 PM 71.6 °F - 46.4 °F 41% 30.42 in 10.0 mi SW 8.1 mph - N/A   Clear
3:35 PM 71.6 °F - 46.4 °F 41% 30.42 in 10.0 mi SW 9.2 mph - N/A   Clear
3:55 PM 69.8 °F - 46.4 °F 43% 30.42 in 10.0 mi South 4.6 mph - N/A   Clear
4:15 PM 69.8 °F - 46.4 °F 43% 30.42 in 10.0 mi SSE 8.1 mph - N/A   Clear
4:35 PM 69.8 °F - 46.4 °F 43% 30.42 in 10.0 mi South 8.1 mph - N/A   Clear
4:55 PM 68.0 °F - 46.4 °F 46% 30.42 in 10.0 mi South 5.8 mph - N/A   Clear
5:15 PM 68.0 °F - 46.4 °F 46% 30.42 in 10.0 mi South 3.5 mph - N/A   Clear
5:35 PM 66.2 °F - 46.4 °F 49% 30.43 in 10.0 mi Calm Calm - N/A   Clear
5:55 PM 64.4 °F - 46.4 °F 52% 30.43 in 10.0 mi Calm Calm - N/A   Clear
6:15 PM 60.8 °F - 46.4 °F 59% 30.44 in 10.0 mi Calm Calm - N/A   Clear
6:35 PM 60.8 °F - 46.4 °F 59% 30.45 in 10.0 mi Calm Calm - N/A   Clear
6:55 PM 57.2 °F - 46.4 °F 67% 30.45 in 10.0 mi Calm Calm - N/A   Clear
7:15 PM 55.4 °F - 46.4 °F 72% 30.45 in 10.0 mi Calm Calm - N/A   Clear
7:35 PM 53.6 °F - 46.4 °F 77% 30.45 in 10.0 mi Calm Calm - N/A   Clear
7:55 PM 53.6 °F - 46.4 °F 77% 30.45 in 10.0 mi Calm Calm - N/A   Clear
8:15 PM 57.2 °F - 50.0 °F 77% 30.45 in 10.0 mi Calm Calm - N/A   Clear
8:35 PM 59.0 °F - 50.0 °F 72% 30.45 in 10.0 mi Calm Calm - N/A   Clear
8:55 PM 57.2 °F - 50.0 °F 77% 30.46 in 10.0 mi Calm Calm - N/A   Clear
9:15 PM 55.4 °F - 50.0 °F 82% 30.45 in 10.0 mi Calm Calm - N/A   Clear
9:35 PM 55.4 °F - 50.0 °F 82% 30.45 in 10.0 mi Calm Calm - N/A   Clear
9:55 PM 57.2 °F - 50.0 °F 77% 30.46 in 10.0 mi Calm Calm - N/A   Clear
10:15 PM 57.2 °F - 50.0 °F 77% 30.45 in 10.0 mi Calm Calm - N/A   Clear
10:35 PM 55.4 °F - 50.0 °F 82% 30.46 in 10.0 mi Calm Calm - N/A   Clear
11:15 PM 51.8 °F - 50.0 °F 94% 30.45 in 10.0 mi Calm Calm - N/A   Clear
11:35 PM 50.0 °F - 50.0 °F 100% 30.45 in 10.0 mi Calm Calm - N/A   Clear
11:55 PM 50.0 °F - 50.0 °F 100% 30.45 in 10.0 mi Calm Calm - N/A   Clear